SWR54B LSZH-KBOS

Flight info

Callsign SWR54B
Flight time 7h 21m
Altitude 34000
Route VEBIT T10 TORPA DCT REKLA DCT RLP DCT ROTSI/N0485F380 DCT AMODO DCT COHPA UM729 RESMI DCT TABOV DCT PIGOP DCT DITAL UN491 LGL UN502 ARGED DCT SENLO DCT JSY DCT LIZAD DCT GAPLI/M084F380 DCT SOMAX/M084F390 DCT 51N020W 51N030W 51N040W 50N050W DCT ELSIR/N0495F400 N398B TUSKY DCT OOSHN OOSHN5
Aircraft A359/H-SDE2E3GHIJ3J4J5LM1ORWXY/LB1D1

Departure

Time 2026-05-04 08:11
Airport Zürich Airport (LSZH)

Arrival

Time 2026-05-04 15:32
Airport Boston Logan International Airport (KBOS)
Time Latitude Longitude Altitude Speed Heading
2026-05-04 07:26 47.46035 8.55736 1409 ft 0 kts
2026-05-04 07:58 47.46034 8.55736 1409 ft 2 kts
2026-05-04 07:59 47.46009 8.55731 1415 ft 4 kts
2026-05-04 07:59 47.45982 8.55730 1415 ft 4 kts 347°
2026-05-04 07:59 47.45960 8.55741 1412 ft 4 kts 327°
2026-05-04 07:59 47.45944 8.55767 1413 ft 4 kts 281°
2026-05-04 08:00 47.45943 8.55806 1410 ft 4 kts 273°
2026-05-04 08:00 47.45943 8.55814 1416 ft 0 kts 276°
2026-05-04 08:02 47.45945 8.55785 1416 ft 7 kts 276°
2026-05-04 08:02 47.45951 8.55696 1418 ft 10 kts 274°
2026-05-04 08:03 47.45959 8.55584 1410 ft 12 kts 276°
2026-05-04 08:03 47.45969 8.55448 1410 ft 14 kts 276°
2026-05-04 08:03 47.45979 8.55308 1411 ft 14 kts 276°
2026-05-04 08:03 47.45990 8.55149 1400 ft 17 kts 275°
2026-05-04 08:04 47.46007 8.54976 1405 ft 15 kts 294°
2026-05-04 08:04 47.46096 8.54886 1406 ft 17 kts 335°
2026-05-04 08:04 47.46206 8.54813 1404 ft 18 kts 335°
2026-05-04 08:04 47.46324 8.54731 1402 ft 20 kts 335°
2026-05-04 08:05 47.46451 8.54642 1401 ft 20 kts 335°
2026-05-04 08:05 47.46574 8.54558 1406 ft 19 kts 335°
2026-05-04 08:05 47.46702 8.54471 1401 ft 21 kts 335°
2026-05-04 08:05 47.46833 8.54392 1385 ft 19 kts 338°
2026-05-04 08:06 47.46955 8.54312 1386 ft 19 kts 333°
2026-05-04 08:06 47.47072 8.54229 1401 ft 19 kts 334°
2026-05-04 08:06 47.47189 8.54150 1403 ft 18 kts 335°
2026-05-04 08:06 47.47304 8.54071 1399 ft 18 kts 335°
2026-05-04 08:08 47.47608 8.53809 1412 ft 0 kts 285°
2026-05-04 08:10 47.45018 8.55346 1899 ft 167 kts 155°
2026-05-04 08:11 47.43959 8.56035 2535 ft 168 kts 155°
2026-05-04 08:11 47.42572 8.58591 3502 ft 172 kts 78°
2026-05-04 08:11 47.43192 8.59967 3904 ft 167 kts 27°
2026-05-04 08:12 47.44308 8.60058 4264 ft 169 kts 337°
2026-05-04 08:12 47.45078 8.58748 4568 ft 182 kts 289°
2026-05-04 08:12 47.45352 8.56836 4832 ft 199 kts 283°
2026-05-04 08:12 47.45660 8.54751 5070 ft 217 kts 283°
2026-05-04 08:13 47.45714 8.52455 5411 ft 232 kts 266°
2026-05-04 08:13 47.45527 8.49981 5671 ft 254 kts 261°
2026-05-04 08:13 47.44978 8.47406 5968 ft 272 kts 242°
2026-05-04 08:13 47.43947 8.45006 6521 ft 280 kts 233°
2026-05-04 08:14 47.42810 8.42651 7224 ft 283 kts 233°
2026-05-04 08:14 47.41673 8.40285 8054 ft 281 kts 233°
2026-05-04 08:14 47.40554 8.37935 8952 ft 279 kts 232°
2026-05-04 08:16 47.33274 8.18615 12991 ft 340 kts 241°
2026-05-04 08:16 47.32175 8.15522 13724 ft 342 kts 241°
2026-05-04 08:16 47.31063 8.12396 14380 ft 345 kts 241°
2026-05-04 08:17 47.29947 8.09253 14939 ft 349 kts 241°
2026-05-04 08:17 47.28811 8.06062 15516 ft 353 kts 241°
2026-05-04 08:17 47.27752 8.02781 16087 ft 358 kts 248°
2026-05-04 08:17 47.27195 7.99191 16645 ft 365 kts 263°
2026-05-04 08:19 47.29584 7.72120 20529 ft 394 kts 275°
2026-05-04 08:19 47.29972 7.68100 21074 ft 398 kts 275°
2026-05-04 08:20 47.30414 7.64052 21576 ft 404 kts 279°
2026-05-04 08:20 47.31124 7.60036 22141 ft 407 kts 283°
2026-05-04 08:20 47.31931 7.56014 22677 ft 411 kts 284°
2026-05-04 08:20 47.32792 7.51968 23176 ft 415 kts 284°
2026-05-04 08:21 47.33682 7.47904 23685 ft 418 kts 285°
2026-05-04 08:21 47.34587 7.43801 24067 ft 423 kts 284°
2026-05-04 08:21 47.35495 7.39666 24521 ft 425 kts 284°
2026-05-04 08:21 47.36403 7.35507 25014 ft 427 kts 284°
2026-05-04 08:22 47.37308 7.31331 25509 ft 428 kts 284°
2026-05-04 08:22 47.38212 7.27140 25998 ft 430 kts 284°
2026-05-04 08:24 47.43470 6.96874 29076 ft 442 kts 278°
2026-05-04 08:24 47.44113 6.92430 29497 ft 444 kts 278°
2026-05-04 08:24 47.44759 6.87961 29904 ft 446 kts 278°
2026-05-04 08:24 47.45399 6.83536 30260 ft 448 kts 278°
2026-05-04 08:25 47.46051 6.79024 30598 ft 450 kts 278°
2026-05-04 08:25 47.46705 6.74497 30952 ft 451 kts 278°
2026-05-04 08:25 47.47358 6.69961 31275 ft 453 kts 278°
2026-05-04 08:25 47.47919 6.65384 31598 ft 452 kts 273°
2026-05-04 08:26 47.48314 6.60763 31870 ft 454 kts 272°
2026-05-04 08:27 47.50648 6.28037 34140 ft 455 kts 271°
2026-05-04 08:28 47.50972 6.23385 34432 ft 455 kts 271°
2026-05-04 08:28 47.51294 6.18721 34603 ft 457 kts 271°
2026-05-04 08:28 47.51615 6.14039 34821 ft 457 kts 271°
2026-05-04 08:28 47.51933 6.09370 35069 ft 457 kts 271°
2026-05-04 08:29 47.52251 6.04695 35291 ft 456 kts 271°
2026-05-04 08:29 47.52566 6.00030 35529 ft 456 kts 271°
2026-05-04 08:29 47.52888 5.95355 35756 ft 457 kts 272°
2026-05-04 08:31 47.64677 5.67000 36042 ft 482 kts 308°
2026-05-04 08:33 47.82840 5.37701 36041 ft 483 kts 307°
2026-05-04 08:35 48.00888 5.08061 36030 ft 482 kts 307°
2026-05-04 08:35 48.05391 5.00608 36016 ft 484 kts 307°
2026-05-04 08:37 48.21108 4.74448 36003 ft 483 kts 306°
2026-05-04 08:38 48.25417 4.66755 35981 ft 479 kts 297°
2026-05-04 08:38 48.28058 4.57774 36191 ft 465 kts 277°
2026-05-04 08:40 48.31127 4.26047 37481 ft 460 kts 272°
2026-05-04 08:40 48.31548 4.21275 37539 ft 462 kts 272°
2026-05-04 08:40 48.31974 4.16491 37673 ft 463 kts 273°
2026-05-04 08:41 48.32401 4.11700 37852 ft 462 kts 273°
2026-05-04 08:41 48.32828 4.06915 37999 ft 463 kts 273°
2026-05-04 08:41 48.33249 4.02172 38022 ft 465 kts 273°
2026-05-04 08:42 48.34098 3.92507 38022 ft 467 kts 273°
2026-05-04 08:42 48.34940 3.82832 38015 ft 466 kts 272°
2026-05-04 08:43 48.35772 3.73168 37993 ft 466 kts 272°
2026-05-04 08:43 48.36596 3.63500 37987 ft 466 kts 272°
2026-05-04 08:44 48.37412 3.53828 37990 ft 466 kts 272°
2026-05-04 08:46 48.40591 3.15119 37982 ft 466 kts 272°
2026-05-04 08:46 48.41367 3.05420 37989 ft 466 kts 272°
2026-05-04 08:47 48.42453 2.95776 37993 ft 471 kts 280°
2026-05-04 08:47 48.44174 2.86296 37988 ft 473 kts 282°
2026-05-04 08:48 48.46022 2.76712 37986 ft 474 kts 282°
2026-05-04 08:48 48.47859 2.67184 37988 ft 473 kts 282°
2026-05-04 08:49 48.49663 2.57711 38004 ft 474 kts 282°
2026-05-04 08:50 48.55966 2.24083 37990 ft 476 kts 281°
2026-05-04 08:51 48.57701 2.14444 37999 ft 475 kts 279°
2026-05-04 08:51 48.59060 2.04671 37992 ft 476 kts 277°
2026-05-04 08:52 48.60334 1.94857 37990 ft 477 kts 277°
2026-05-04 08:52 48.61654 1.85040 37982 ft 477 kts 277°
2026-05-04 08:54 48.67010 1.45754 37980 ft 479 kts 278°
2026-05-04 08:55 48.68329 1.35881 37975 ft 479 kts 278°
2026-05-04 08:55 48.69642 1.26007 37985 ft 478 kts 278°
2026-05-04 09:01 48.84569 0.22531 37982 ft 482 kts 282°
2026-05-04 09:01 48.86333 0.12774 37984 ft 482 kts 282°
2026-05-04 09:02 48.88076 0.02945 37985 ft 482 kts 282°
2026-05-04 09:02 48.89811 -0.06900 37988 ft 483 kts 282°
2026-05-04 09:03 48.91548 -0.16797 37981 ft 485 kts 282°
2026-05-04 09:03 48.93281 -0.26707 37992 ft 485 kts 282°
2026-05-04 09:04 48.94978 -0.36642 37988 ft 485 kts 281°
2026-05-04 09:04 48.96639 -0.46582 37994 ft 485 kts 281°
2026-05-04 09:05 48.98297 -0.56540 37989 ft 485 kts 281°
2026-05-04 09:05 48.99951 -0.66495 37994 ft 485 kts 281°
2026-05-04 09:06 49.01598 -0.76445 37992 ft 485 kts 281°
2026-05-04 09:08 49.08125 -1.16473 37984 ft 488 kts 281°
2026-05-04 09:08 49.09741 -1.26446 37994 ft 487 kts 281°
2026-05-04 09:09 49.11364 -1.36482 37997 ft 488 kts 281°
2026-05-04 09:09 49.12986 -1.46567 37999 ft 490 kts 281°
2026-05-04 09:10 49.14602 -1.56685 37998 ft 490 kts 281°
2026-05-04 09:10 49.16208 -1.66802 38004 ft 490 kts 281°
2026-05-04 09:11 49.17805 -1.76927 38020 ft 490 kts 281°
2026-05-04 09:11 49.19394 -1.87066 38004 ft 490 kts 281°
2026-05-04 09:12 49.20974 -1.97206 38018 ft 490 kts 281°
2026-05-04 09:14 49.27777 -2.37666 38015 ft 491 kts 283°
2026-05-04 09:14 49.29493 -2.47791 38020 ft 491 kts 283°
2026-05-04 09:15 49.31184 -2.57857 38020 ft 491 kts 283°
2026-05-04 09:15 49.32879 -2.68008 38036 ft 491 kts 283°
2026-05-04 09:17 49.40414 -3.13864 38011 ft 493 kts 282°
2026-05-04 09:18 49.42067 -3.24092 38013 ft 494 kts 282°
2026-05-04 09:18 49.43715 -3.34355 38008 ft 495 kts 282°
2026-05-04 09:19 49.45355 -3.44622 38006 ft 495 kts 282°
2026-05-04 09:19 49.46985 -3.54900 38005 ft 495 kts 282°
2026-05-04 09:20 49.48605 -3.65177 38004 ft 496 kts 282°
2026-05-04 09:20 49.50222 -3.75500 38004 ft 496 kts 282°
2026-05-04 09:21 49.51830 -3.85826 38007 ft 497 kts 282°
2026-05-04 09:21 49.53430 -3.96171 38004 ft 497 kts 282°
2026-05-04 09:22 49.55020 -4.06518 38005 ft 497 kts 282°
2026-05-04 09:22 49.56602 -4.16880 38001 ft 498 kts 282°
2026-05-04 09:23 49.58167 -4.27196 38001 ft 498 kts 282°
2026-05-04 09:23 49.59713 -4.37591 38001 ft 498 kts 281°
2026-05-04 09:25 49.64911 -4.79489 38002 ft 497 kts 281°
2026-05-04 09:26 49.66208 -4.89961 37996 ft 497 kts 281°
2026-05-04 09:26 49.67494 -5.00428 37996 ft 497 kts 280°
2026-05-04 09:27 49.68770 -5.10904 37999 ft 497 kts 280°
2026-05-04 09:27 49.70036 -5.21393 37998 ft 497 kts 280°
2026-05-04 09:28 49.71293 -5.31884 37999 ft 497 kts 280°
2026-05-04 09:28 49.72330 -5.40604 37998 ft 497 kts 280°
2026-05-04 09:29 49.73569 -5.51099 37999 ft 496 kts 280°
2026-05-04 09:29 49.74798 -5.61601 37998 ft 496 kts 280°
2026-05-04 09:30 49.76019 -5.72110 37999 ft 497 kts 280°
2026-05-04 09:30 49.77230 -5.82627 37996 ft 497 kts 280°
2026-05-04 09:31 49.78432 -5.93156 37996 ft 497 kts 280°
2026-05-04 09:31 49.79625 -6.03692 37994 ft 497 kts 280°
2026-05-04 09:32 49.80808 -6.14229 37990 ft 497 kts 280°
2026-05-04 09:34 49.85454 -6.56521 37996 ft 499 kts 279°
2026-05-04 09:34 49.86594 -6.67127 37996 ft 499 kts 279°
2026-05-04 09:35 49.87723 -6.77732 37993 ft 499 kts 279°
2026-05-04 09:35 49.88836 -6.88275 37993 ft 499 kts 279°
2026-05-04 09:37 49.93231 -7.30890 37998 ft 500 kts 279°
2026-05-04 09:38 49.94306 -7.41564 37999 ft 501 kts 279°
2026-05-04 09:38 49.95375 -7.52283 38000 ft 502 kts 279°
2026-05-04 09:39 49.96435 -7.63009 38002 ft 503 kts 279°
2026-05-04 09:39 49.97485 -7.73742 38003 ft 503 kts 279°
2026-05-04 09:40 49.98527 -7.84505 38011 ft 504 kts 279°
2026-05-04 09:40 49.99560 -7.95274 38013 ft 504 kts 279°
2026-05-04 09:42 50.01116 -8.38887 38021 ft 506 kts 273°
2026-05-04 09:43 50.01401 -8.49825 38023 ft 507 kts 273°
2026-05-04 09:43 50.01678 -8.60763 38031 ft 506 kts 274°
2026-05-04 09:44 50.01946 -8.71710 38030 ft 507 kts 273°
2026-05-04 09:46 50.02910 -9.15428 38044 ft 507 kts 273°
2026-05-04 09:46 50.03126 -9.26437 38042 ft 506 kts 273°
2026-05-04 09:47 50.03331 -9.37376 38043 ft 505 kts 273°
2026-05-04 09:49 50.04047 -9.80981 38048 ft 505 kts 272°
2026-05-04 09:51 50.04539 -10.19199 38057 ft 505 kts 272°
2026-05-04 09:51 50.04656 -10.30133 38061 ft 506 kts 272°
2026-05-04 09:52 50.04764 -10.41064 38063 ft 506 kts 272°
2026-05-04 09:52 50.04861 -10.51999 38067 ft 506 kts 272°
2026-05-04 09:53 50.04948 -10.62946 38065 ft 506 kts 272°
2026-05-04 09:53 50.05025 -10.73902 38070 ft 507 kts 272°
2026-05-04 09:54 50.05091 -10.84855 38074 ft 507 kts 272°
2026-05-04 09:54 50.05147 -10.95748 38075 ft 507 kts 272°
2026-05-04 09:55 50.05193 -11.06714 38071 ft 507 kts 272°
2026-05-04 09:55 50.05228 -11.17675 38075 ft 507 kts 272°
2026-05-04 09:56 50.05254 -11.28646 38080 ft 507 kts 272°
2026-05-04 09:56 50.05268 -11.39607 38086 ft 507 kts 272°
2026-05-04 09:57 50.05273 -11.50570 38081 ft 507 kts 272°
2026-05-04 09:57 50.05268 -11.61547 38095 ft 507 kts 272°
2026-05-04 09:58 50.05252 -11.72529 38093 ft 508 kts 272°
2026-05-04 09:58 50.05225 -11.83507 38105 ft 507 kts 272°
2026-05-04 10:00 50.05016 -12.27414 38124 ft 507 kts 272°
2026-05-04 10:04 50.04252 -13.04135 38146 ft 507 kts 272°
2026-05-04 10:04 50.04102 -13.15091 38157 ft 507 kts 272°
2026-05-04 10:05 50.03941 -13.26062 38164 ft 507 kts 272°
2026-05-04 10:05 50.03770 -13.37013 38155 ft 507 kts 272°
2026-05-04 10:06 50.03589 -13.47979 38168 ft 507 kts 271°
2026-05-04 10:06 50.03397 -13.58937 38168 ft 507 kts 271°
2026-05-04 10:08 50.02646 -13.97267 38182 ft 507 kts 271°
2026-05-04 10:08 50.02408 -14.08216 38189 ft 507 kts 271°
2026-05-04 10:09 50.02161 -14.19084 38186 ft 506 kts 271°
2026-05-04 10:09 50.02033 -14.24562 38315 ft 506 kts 271°
2026-05-04 10:09 50.01903 -14.30016 38573 ft 504 kts 271°
2026-05-04 10:10 50.01770 -14.35453 38826 ft 502 kts 271°
2026-05-04 10:10 50.01635 -14.40875 38996 ft 501 kts 271°
2026-05-04 10:10 50.01498 -14.46287 39127 ft 501 kts 271°
2026-05-04 10:10 50.01360 -14.51698 39197 ft 502 kts 271°
2026-05-04 10:11 50.01073 -14.62585 39205 ft 504 kts 271°
2026-05-04 10:11 50.00775 -14.73471 39199 ft 504 kts 270°
2026-05-04 10:12 50.00467 -14.84356 39210 ft 503 kts 270°
2026-05-04 10:12 50.00202 -14.95211 39210 ft 501 kts 275°
2026-05-04 10:13 50.01352 -15.05759 39220 ft 492 kts 290°
2026-05-04 10:13 50.03490 -15.15848 39215 ft 491 kts 293°
2026-05-04 10:14 50.05774 -15.25868 39211 ft 491 kts 293°
2026-05-04 10:16 50.14707 -15.66049 39235 ft 491 kts 292°
2026-05-04 10:16 50.16909 -15.76129 39236 ft 491 kts 292°
2026-05-04 10:17 50.19100 -15.86211 39240 ft 490 kts 292°
2026-05-04 10:19 50.27752 -16.26502 39253 ft 490 kts 292°
2026-05-04 10:19 50.29549 -16.34968 39247 ft 489 kts 291°
2026-05-04 10:20 50.31684 -16.45078 39254 ft 489 kts 291°
2026-05-04 10:20 50.33811 -16.55197 39254 ft 489 kts 291°
2026-05-04 10:21 50.35929 -16.65329 39259 ft 489 kts 291°
2026-05-04 10:21 50.38037 -16.75463 39259 ft 489 kts 291°
2026-05-04 10:22 50.41183 -16.90678 39270 ft 489 kts 291°
2026-05-04 10:23 50.43269 -17.00833 39267 ft 489 kts 290°
2026-05-04 10:25 50.51515 -17.41497 39274 ft 489 kts 290°
2026-05-04 10:25 50.53558 -17.51705 39274 ft 490 kts 289°
2026-05-04 10:26 50.55592 -17.61919 39276 ft 490 kts 289°
2026-05-04 10:26 50.57619 -17.72149 39276 ft 490 kts 289°
2026-05-04 10:27 50.59634 -17.82379 39279 ft 490 kts 289°
2026-05-04 10:27 50.61643 -17.92630 39278 ft 490 kts 289°
2026-05-04 10:28 50.63643 -18.02887 39283 ft 490 kts 289°
2026-05-04 10:28 50.65627 -18.13122 39285 ft 488 kts 289°
2026-05-04 10:29 50.67584 -18.23269 39287 ft 487 kts 289°
2026-05-04 10:29 50.69545 -18.33489 39287 ft 487 kts 288°
2026-05-04 10:30 50.71496 -18.43713 39291 ft 487 kts 288°
2026-05-04 10:30 50.73438 -18.53952 39292 ft 487 kts 288°
2026-05-04 10:31 50.75367 -18.64169 39290 ft 484 kts 288°
2026-05-04 10:32 50.81985 -18.99674 39305 ft 479 kts 288°
2026-05-04 10:33 50.83849 -19.09792 39299 ft 480 kts 288°
2026-05-04 10:33 50.85703 -19.19915 39305 ft 477 kts 288°
2026-05-04 10:34 50.87538 -19.29991 39308 ft 475 kts 288°
2026-05-04 10:34 50.89357 -19.40037 39308 ft 474 kts 288°
2026-05-04 10:35 50.91167 -19.50083 39309 ft 474 kts 288°
2026-05-04 10:35 50.92967 -19.60130 39314 ft 474 kts 287°
2026-05-04 10:36 50.94759 -19.70189 39313 ft 474 kts 287°
2026-05-04 10:36 50.96543 -19.80261 39317 ft 473 kts 288°
2026-05-04 10:37 50.98314 -19.90315 39317 ft 474 kts 288°
2026-05-04 10:37 50.99874 -20.00477 39318 ft 476 kts 279°
2026-05-04 10:39 51.01546 -20.37224 39327 ft 476 kts 275°
2026-05-04 10:40 51.01950 -20.47708 39333 ft 476 kts 275°
2026-05-04 10:40 51.02348 -20.58134 39333 ft 476 kts 275°
2026-05-04 10:41 51.02741 -20.68617 39335 ft 476 kts 275°
2026-05-04 10:41 51.03124 -20.79115 39334 ft 476 kts 275°
2026-05-04 10:42 51.03497 -20.89611 39343 ft 476 kts 275°
2026-05-04 10:42 51.03861 -21.00107 39343 ft 476 kts 275°
2026-05-04 10:43 51.04214 -21.10599 39346 ft 475 kts 275°
2026-05-04 10:45 51.05535 -21.52553 39354 ft 474 kts 274°
2026-05-04 10:45 51.05841 -21.63029 39354 ft 475 kts 274°
2026-05-04 10:46 51.06138 -21.73514 39361 ft 475 kts 274°
2026-05-04 10:46 51.06426 -21.83992 39357 ft 474 kts 274°
2026-05-04 10:47 51.06704 -21.94475 39369 ft 474 kts 274°
2026-05-04 10:47 51.06971 -22.04874 39367 ft 474 kts 274°
2026-05-04 10:49 51.07952 -22.46784 39371 ft 474 kts 273°
2026-05-04 10:50 51.08173 -22.57254 39380 ft 474 kts 273°
2026-05-04 10:52 51.08966 -22.99120 39385 ft 473 kts 272°
2026-05-04 10:52 51.09140 -23.09589 39384 ft 473 kts 272°
2026-05-04 10:54 51.09745 -23.51438 39398 ft 473 kts 272°
2026-05-04 10:56 51.10200 -23.93204 39401 ft 473 kts 272°
2026-05-04 10:57 51.10291 -24.03656 39409 ft 472 kts 272°
2026-05-04 10:57 51.10372 -24.14108 39409 ft 472 kts 272°
2026-05-04 10:58 51.10444 -24.24554 39411 ft 472 kts 272°
2026-05-04 10:58 51.10507 -24.35012 39411 ft 472 kts 272°
2026-05-04 10:59 51.10560 -24.45470 39408 ft 472 kts 272°
2026-05-04 10:59 51.10604 -24.55920 39411 ft 472 kts 271°
2026-05-04 11:00 51.10638 -24.66370 39415 ft 472 kts 271°
2026-05-04 11:02 51.10684 -25.08050 39422 ft 472 kts 271°
2026-05-04 11:05 51.10369 -25.86316 39429 ft 472 kts 271°
2026-05-04 11:06 51.10287 -25.96755 39431 ft 472 kts 270°
2026-05-04 11:06 51.10196 -26.07185 39433 ft 471 kts 270°
2026-05-04 11:10 51.09329 -26.78328 39449 ft 471 kts 270°
2026-05-04 11:12 51.08623 -27.19914 39434 ft 470 kts 269°
2026-05-04 11:12 51.08423 -27.30299 39441 ft 470 kts 269°
2026-05-04 11:13 51.08216 -27.40606 39448 ft 469 kts 269°
2026-05-04 11:13 51.07998 -27.50983 39447 ft 469 kts 269°
2026-05-04 11:14 51.07772 -27.61351 39455 ft 469 kts 269°
2026-05-04 11:16 51.06774 -28.02766 39452 ft 468 kts 269°
2026-05-04 11:16 51.06502 -28.13104 39450 ft 468 kts 268°
2026-05-04 11:17 51.06221 -28.23434 39441 ft 467 kts 268°
2026-05-04 11:19 51.05010 -28.64641 39450 ft 467 kts 268°
2026-05-04 11:19 51.04685 -28.74947 39442 ft 467 kts 268°
2026-05-04 11:20 51.04350 -28.85253 39452 ft 467 kts 268°
2026-05-04 11:20 51.04006 -28.95558 39442 ft 467 kts 268°
2026-05-04 11:22 51.02542 -29.36725 39450 ft 466 kts 267°
2026-05-04 11:23 51.02153 -29.47008 39453 ft 466 kts 267°
2026-05-04 11:25 51.00722 -29.82981 39446 ft 466 kts 267°
2026-05-04 11:25 51.00294 -29.93240 39447 ft 466 kts 267°
2026-05-04 11:27 51.01622 -30.39304 39454 ft 465 kts 274°
2026-05-04 11:28 51.02024 -30.49549 39448 ft 465 kts 274°
2026-05-04 11:28 51.02414 -30.59798 39451 ft 465 kts 274°
2026-05-04 11:29 51.02794 -30.70049 39448 ft 465 kts 274°
2026-05-04 11:29 51.03166 -30.80293 39454 ft 465 kts 274°
2026-05-04 11:33 51.05515 -31.51900 39452 ft 463 kts 273°
2026-05-04 11:33 51.05815 -31.62113 39452 ft 463 kts 273°
2026-05-04 11:34 51.06105 -31.72323 39450 ft 463 kts 273°
2026-05-04 11:34 51.06386 -31.82546 39457 ft 463 kts 273°
2026-05-04 11:35 51.06657 -31.92698 39446 ft 463 kts 273°
2026-05-04 11:35 51.06921 -32.02919 39452 ft 463 kts 273°
2026-05-04 11:36 51.07176 -32.13137 39448 ft 462 kts 273°
2026-05-04 11:36 51.07421 -32.23351 39449 ft 462 kts 273°
2026-05-04 11:37 51.07658 -32.33566 39450 ft 462 kts 273°
2026-05-04 11:37 51.07886 -32.43789 39444 ft 462 kts 273°
2026-05-04 11:38 51.08105 -32.54007 39442 ft 462 kts 273°
2026-05-04 11:38 51.08315 -32.64220 39445 ft 462 kts 273°
2026-05-04 11:39 51.08516 -32.74429 39440 ft 462 kts 273°
2026-05-04 11:41 51.09149 -33.10163 39437 ft 461 kts 273°
2026-05-04 11:41 51.09310 -33.20348 39437 ft 461 kts 272°
2026-05-04 11:42 51.09461 -33.30531 39430 ft 460 kts 272°
2026-05-04 11:42 51.09604 -33.40720 39429 ft 461 kts 272°
2026-05-04 11:43 51.09738 -33.50903 39427 ft 461 kts 272°
2026-05-04 11:43 51.09863 -33.61091 39410 ft 460 kts 272°
2026-05-04 11:44 51.09979 -33.71260 39424 ft 459 kts 272°
2026-05-04 11:44 51.10086 -33.81397 39419 ft 458 kts 272°
2026-05-04 11:45 51.10184 -33.91533 39425 ft 458 kts 272°
2026-05-04 11:45 51.10273 -34.01606 39417 ft 458 kts 272°
2026-05-04 11:46 51.10354 -34.11744 39418 ft 458 kts 272°
2026-05-04 11:46 51.10426 -34.21885 39410 ft 458 kts 272°
2026-05-04 11:47 51.10489 -34.31995 39410 ft 456 kts 272°
2026-05-04 11:47 51.10543 -34.42083 39409 ft 456 kts 272°
2026-05-04 11:48 51.10588 -34.52158 39412 ft 456 kts 272°
2026-05-04 11:48 51.10625 -34.62235 39410 ft 455 kts 272°
2026-05-04 11:49 51.10653 -34.72317 39405 ft 456 kts 272°
2026-05-04 11:49 51.10672 -34.82394 39402 ft 455 kts 272°
2026-05-04 11:50 51.10683 -34.92436 39400 ft 453 kts 272°
2026-05-04 11:50 51.10685 -35.02466 39400 ft 453 kts 272°
2026-05-04 11:51 51.10679 -35.12491 39404 ft 453 kts 272°
2026-05-04 11:51 51.10664 -35.22504 39399 ft 452 kts 272°
2026-05-04 11:52 51.10640 -35.32505 39400 ft 452 kts 272°
2026-05-04 11:52 51.10608 -35.42427 39395 ft 450 kts 272°
2026-05-04 11:53 51.10568 -35.52358 39394 ft 449 kts 272°
2026-05-04 11:53 51.10519 -35.62281 39392 ft 448 kts 272°
2026-05-04 11:55 51.10242 -36.01932 39388 ft 447 kts 272°
2026-05-04 11:56 51.10151 -36.11808 39387 ft 446 kts 272°
2026-05-04 11:56 51.10053 -36.21674 39387 ft 446 kts 271°
2026-05-04 11:57 51.09947 -36.31533 39385 ft 446 kts 271°
2026-05-04 11:57 51.09832 -36.41402 39384 ft 446 kts 271°
2026-05-04 11:58 51.09709 -36.51260 39369 ft 446 kts 272°
2026-05-04 11:58 51.09578 -36.61018 39381 ft 442 kts 272°
2026-05-04 11:59 51.09439 -36.70785 39382 ft 442 kts 272°
2026-05-04 11:59 51.09294 -36.80549 39374 ft 441 kts 272°
2026-05-04 12:00 51.09139 -36.90309 39374 ft 441 kts 271°
2026-05-04 12:00 51.08977 -37.00062 39374 ft 441 kts 271°
2026-05-04 12:01 51.08836 -37.08166 39351 ft 441 kts 271°
2026-05-04 12:02 51.08182 -37.42190 39365 ft 440 kts 272°
2026-05-04 12:03 51.07977 -37.51910 39359 ft 440 kts 271°
2026-05-04 12:03 51.07764 -37.61626 39359 ft 440 kts 271°
2026-05-04 12:04 51.07543 -37.71331 39350 ft 439 kts 271°
2026-05-04 12:04 51.07314 -37.81005 39354 ft 437 kts 271°
2026-05-04 12:05 51.07079 -37.90650 39344 ft 437 kts 271°
2026-05-04 12:05 51.06836 -38.00300 39343 ft 437 kts 271°
2026-05-04 12:06 51.06584 -38.09955 39344 ft 437 kts 271°
2026-05-04 12:06 51.06325 -38.19595 39344 ft 437 kts 271°
2026-05-04 12:07 51.06058 -38.29237 39330 ft 435 kts 271°
2026-05-04 12:07 51.05784 -38.38790 39331 ft 432 kts 271°
2026-05-04 12:08 51.05505 -38.48317 39333 ft 431 kts 270°
2026-05-04 12:08 51.05220 -38.57768 39321 ft 431 kts 270°
2026-05-04 12:09 51.04924 -38.67270 39320 ft 431 kts 270°
2026-05-04 12:09 51.04623 -38.76786 39321 ft 431 kts 270°
2026-05-04 12:10 51.04314 -38.86294 39318 ft 432 kts 270°
2026-05-04 12:10 51.03995 -38.95836 39315 ft 433 kts 270°
2026-05-04 12:11 51.03668 -39.05381 39307 ft 433 kts 270°
2026-05-04 12:11 51.03333 -39.14941 39305 ft 433 kts 269°
2026-05-04 12:12 51.02990 -39.24492 39293 ft 433 kts 269°
2026-05-04 12:12 51.02639 -39.34050 39301 ft 434 kts 269°
2026-05-04 12:14 51.01155 -39.72350 39284 ft 436 kts 269°
2026-05-04 12:15 51.00763 -39.81949 39279 ft 436 kts 269°
2026-05-04 12:15 51.00363 -39.91548 39273 ft 436 kts 269°
2026-05-04 12:16 50.99956 -40.01143 39264 ft 436 kts 269°
2026-05-04 12:16 50.99453 -40.10732 39265 ft 435 kts 268°
2026-05-04 12:17 50.98879 -40.20293 39259 ft 435 kts 268°
2026-05-04 12:17 50.98308 -40.29844 39254 ft 435 kts 268°
2026-05-04 12:18 50.97744 -40.39388 39252 ft 434 kts 268°
2026-05-04 12:18 50.97177 -40.48934 39244 ft 434 kts 268°
2026-05-04 12:19 50.96604 -40.58452 39242 ft 431 kts 268°
2026-05-04 12:19 50.96027 -40.67869 39235 ft 428 kts 268°
2026-05-04 12:20 50.95446 -40.77260 39233 ft 427 kts 268°
2026-05-04 12:20 50.94859 -40.86635 39224 ft 427 kts 268°
2026-05-04 12:21 50.94264 -40.96009 39219 ft 426 kts 267°
2026-05-04 12:21 50.93662 -41.05350 39219 ft 426 kts 267°
2026-05-04 12:22 50.93054 -41.14675 39209 ft 423 kts 266°
2026-05-04 12:22 50.92444 -41.23909 39203 ft 421 kts 266°
2026-05-04 12:23 50.91830 -41.33119 39203 ft 420 kts 266°
2026-05-04 12:23 50.91212 -41.42271 39203 ft 420 kts 266°
2026-05-04 12:24 50.90583 -41.51475 39203 ft 420 kts 266°
2026-05-04 12:24 50.89946 -41.60679 39189 ft 420 kts 266°
2026-05-04 12:25 50.89301 -41.69882 39189 ft 420 kts 266°
2026-05-04 12:25 50.88650 -41.79076 39181 ft 420 kts 266°
2026-05-04 12:26 50.87991 -41.88274 39181 ft 420 kts 266°
2026-05-04 12:26 50.87326 -41.97462 39162 ft 420 kts 266°
2026-05-04 12:27 50.86653 -42.06655 39163 ft 420 kts 266°
2026-05-04 12:27 50.85973 -42.15843 39162 ft 420 kts 266°
2026-05-04 12:28 50.85286 -42.25022 39152 ft 419 kts 265°
2026-05-04 12:28 50.84595 -42.34143 39153 ft 417 kts 265°
2026-05-04 12:29 50.83899 -42.43249 39143 ft 417 kts 265°
2026-05-04 12:29 50.83196 -42.52351 39144 ft 417 kts 265°
2026-05-04 12:30 50.82487 -42.61443 39138 ft 416 kts 264°
2026-05-04 12:30 50.81771 -42.70519 39127 ft 416 kts 264°
2026-05-04 12:31 50.81049 -42.79587 39121 ft 416 kts 264°
2026-05-04 12:31 50.80318 -42.88668 39116 ft 416 kts 264°
2026-05-04 12:32 50.79214 -43.02227 39110 ft 417 kts 263°
2026-05-04 12:33 50.78466 -43.11305 39100 ft 417 kts 263°
2026-05-04 12:33 50.77710 -43.20381 39099 ft 417 kts 263°
2026-05-04 12:34 50.76948 -43.29449 39090 ft 417 kts 263°
2026-05-04 12:34 50.76177 -43.38532 39083 ft 417 kts 263°
2026-05-04 12:35 50.75399 -43.47620 39082 ft 417 kts 262°
2026-05-04 12:35 50.74614 -43.56692 39075 ft 417 kts 262°
2026-05-04 12:36 50.73822 -43.65775 39067 ft 417 kts 262°
2026-05-04 12:36 50.73024 -43.74829 39057 ft 417 kts 262°
2026-05-04 12:37 50.72217 -43.83906 39053 ft 417 kts 262°
2026-05-04 12:37 50.71405 -43.92962 39045 ft 418 kts 261°
2026-05-04 12:38 50.70584 -44.02039 39039 ft 418 kts 261°
2026-05-04 12:38 50.69755 -44.11112 39040 ft 418 kts 261°
2026-05-04 12:39 50.68919 -44.20190 39027 ft 418 kts 261°
2026-05-04 12:39 50.68077 -44.29256 39021 ft 418 kts 261°
2026-05-04 12:40 50.67227 -44.38318 39018 ft 418 kts 261°
2026-05-04 12:40 50.66371 -44.47375 39009 ft 418 kts 260°
2026-05-04 12:41 50.65507 -44.56435 39011 ft 418 kts 259°
2026-05-04 12:41 50.64637 -44.65483 38993 ft 418 kts 259°
2026-05-04 12:42 50.63760 -44.74526 38993 ft 418 kts 259°
2026-05-04 12:42 50.62876 -44.83567 38993 ft 418 kts 259°
2026-05-04 12:43 50.61985 -44.92604 38976 ft 418 kts 259°
2026-05-04 12:43 50.61095 -45.01567 38977 ft 416 kts 258°
2026-05-04 12:44 50.60196 -45.10542 38973 ft 414 kts 258°
2026-05-04 12:44 50.59293 -45.19477 38966 ft 413 kts 258°
2026-05-04 12:45 50.58383 -45.28409 38949 ft 413 kts 258°
2026-05-04 12:45 50.57467 -45.37338 38949 ft 413 kts 258°
2026-05-04 12:46 50.56544 -45.46256 38949 ft 413 kts 257°
2026-05-04 12:46 50.55615 -45.55174 38944 ft 414 kts 257°
2026-05-04 12:47 50.54674 -45.64126 38935 ft 415 kts 257°
2026-05-04 12:47 50.53725 -45.73093 38925 ft 416 kts 257°
2026-05-04 12:48 50.52770 -45.82052 38925 ft 416 kts 257°
2026-05-04 12:48 50.51808 -45.91002 38934 ft 416 kts 256°
2026-05-04 12:49 50.50838 -45.99958 38904 ft 416 kts 256°
2026-05-04 12:49 50.50027 -46.07404 38916 ft 416 kts 255°
2026-05-04 12:50 50.49047 -46.16333 38895 ft 414 kts 255°
2026-05-04 12:50 50.48063 -46.25241 38890 ft 414 kts 255°
2026-05-04 12:51 50.47070 -46.34149 38879 ft 414 kts 255°
2026-05-04 12:51 50.46072 -46.43041 38880 ft 414 kts 255°
2026-05-04 12:52 50.45067 -46.51936 38877 ft 414 kts 255°
2026-05-04 12:52 50.44056 -46.60824 38861 ft 414 kts 254°
2026-05-04 12:53 50.43037 -46.69711 38859 ft 414 kts 253°
2026-05-04 12:53 50.42007 -46.78622 38862 ft 416 kts 253°
2026-05-04 12:54 50.40968 -46.87558 38846 ft 417 kts 253°
2026-05-04 12:54 50.39923 -46.96493 38846 ft 417 kts 253°
2026-05-04 12:55 50.38870 -47.05430 38838 ft 417 kts 253°
2026-05-04 12:55 50.37810 -47.14361 38836 ft 417 kts 252°
2026-05-04 12:56 50.36743 -47.23283 38819 ft 417 kts 252°
2026-05-04 12:56 50.35669 -47.32208 38813 ft 417 kts 252°
2026-05-04 12:57 50.34589 -47.41123 38813 ft 417 kts 252°
2026-05-04 12:57 50.33502 -47.50038 38804 ft 417 kts 252°
2026-05-04 12:58 50.32407 -47.58951 38798 ft 418 kts 252°
2026-05-04 12:58 50.31297 -47.67914 38798 ft 420 kts 251°
2026-05-04 12:59 50.30179 -47.76881 38789 ft 426 kts 251°
2026-05-04 12:59 50.29038 -47.85983 38774 ft 427 kts 251°
2026-05-04 13:00 50.27893 -47.95090 38766 ft 427 kts 251°
2026-05-04 13:00 50.26740 -48.04185 38769 ft 426 kts 251°
2026-05-04 13:01 50.25579 -48.13266 38761 ft 426 kts 251°
2026-05-04 13:01 50.24410 -48.22348 38757 ft 427 kts 251°
2026-05-04 13:02 50.23230 -48.31448 38738 ft 428 kts 251°
2026-05-04 13:02 50.22037 -48.40594 38743 ft 431 kts 251°
2026-05-04 13:03 50.20831 -48.49779 38725 ft 432 kts 251°
2026-05-04 13:03 50.19618 -48.58980 38716 ft 433 kts 251°
2026-05-04 13:04 50.18397 -48.68175 38725 ft 433 kts 251°
2026-05-04 13:04 50.17169 -48.77360 38715 ft 434 kts 250°
2026-05-04 13:05 50.15924 -48.86590 38702 ft 435 kts 250°
2026-05-04 13:05 50.14671 -48.95838 38694 ft 436 kts 250°
2026-05-04 13:06 50.13413 -49.05077 38699 ft 436 kts 250°
2026-05-04 13:06 50.12153 -49.14258 38714 ft 436 kts 249°
2026-05-04 13:07 50.10869 -49.23540 38678 ft 441 kts 249°
2026-05-04 13:07 50.09567 -49.32893 38689 ft 444 kts 250°
2026-05-04 13:08 50.08250 -49.42315 38671 ft 446 kts 250°
2026-05-04 13:08 50.06924 -49.51753 38659 ft 446 kts 250°
2026-05-04 13:09 50.05591 -49.61180 38663 ft 446 kts 250°
2026-05-04 13:09 50.04250 -49.70593 38662 ft 446 kts 249°
2026-05-04 13:10 50.02901 -49.79999 38659 ft 446 kts 249°
2026-05-04 13:10 50.01539 -49.89431 38649 ft 448 kts 249°
2026-05-04 13:11 50.00124 -49.98861 38647 ft 445 kts 246°
2026-05-04 13:11 49.98130 -50.07906 38644 ft 441 kts 243°
2026-05-04 13:12 49.95995 -50.16834 38637 ft 441 kts 242°
2026-05-04 13:12 49.93830 -50.25733 38630 ft 441 kts 242°
2026-05-04 13:13 49.91658 -50.34651 38634 ft 444 kts 242°
2026-05-04 13:13 49.89472 -50.43623 38627 ft 445 kts 242°
2026-05-04 13:14 49.87281 -50.52606 38626 ft 445 kts 242°
2026-05-04 13:14 49.85097 -50.61520 38621 ft 445 kts 242°
2026-05-04 13:15 49.82891 -50.70483 38619 ft 445 kts 242°
2026-05-04 13:15 49.80669 -50.79467 38619 ft 448 kts 242°
2026-05-04 13:16 49.78431 -50.88482 38631 ft 449 kts 243°
2026-05-04 13:16 49.76172 -50.97543 38602 ft 454 kts 243°
2026-05-04 13:17 49.73891 -51.06661 38590 ft 455 kts 243°
2026-05-04 13:17 49.71603 -51.15775 38620 ft 455 kts 243°
2026-05-04 13:18 49.69298 -51.24911 38580 ft 458 kts 243°
2026-05-04 13:18 49.66974 -51.34087 38567 ft 459 kts 243°
2026-05-04 13:19 49.64642 -51.43260 38568 ft 459 kts 243°
2026-05-04 13:19 49.62303 -51.52422 38576 ft 459 kts 243°
2026-05-04 13:20 49.59955 -51.61581 38575 ft 459 kts 243°
2026-05-04 13:20 49.57594 -51.70750 38552 ft 461 kts 243°
2026-05-04 13:21 49.55223 -51.79923 38550 ft 461 kts 243°
2026-05-04 13:21 49.52866 -51.89024 39060 ft 451 kts 243°
2026-05-04 13:21 49.51723 -51.93438 39714 ft 436 kts 243°
2026-05-04 13:22 49.50626 -51.97680 40056 ft 418 kts 243°
2026-05-04 13:22 49.49554 -52.01795 39756 ft 412 kts 242°
2026-05-04 13:22 49.48410 -52.05860 39577 ft 416 kts 240°
2026-05-04 13:23 49.45954 -52.14007 39523 ft 423 kts 240°
2026-05-04 13:23 49.43468 -52.22218 39536 ft 431 kts 240°
2026-05-04 13:24 49.40948 -52.30654 39529 ft 438 kts 240°
2026-05-04 13:24 49.38395 -52.39242 39527 ft 446 kts 240°
2026-05-04 13:25 49.34478 -52.52373 39505 ft 457 kts 240°
2026-05-04 13:25 49.31804 -52.61292 39494 ft 463 kts 240°
2026-05-04 13:26 49.29087 -52.70320 39492 ft 468 kts 240°
2026-05-04 13:26 49.26355 -52.79370 39488 ft 468 kts 240°
2026-05-04 13:27 49.23616 -52.88407 39494 ft 468 kts 240°
2026-05-04 13:27 49.20867 -52.97435 39457 ft 470 kts 240°
2026-05-04 13:28 49.18092 -53.06513 39475 ft 472 kts 240°
2026-05-04 13:28 49.15307 -53.15596 39457 ft 472 kts 240°
2026-05-04 13:29 49.12513 -53.24672 39470 ft 472 kts 240°
2026-05-04 13:29 49.09729 -53.33684 39435 ft 473 kts 240°
2026-05-04 13:30 49.06920 -53.42743 39430 ft 473 kts 240°
2026-05-04 13:30 49.04105 -53.51789 39428 ft 472 kts 240°
2026-05-04 13:31 49.01281 -53.60830 39417 ft 472 kts 240°
2026-05-04 13:31 48.98450 -53.69861 39414 ft 472 kts 240°
2026-05-04 13:32 48.95615 -53.78871 39397 ft 472 kts 240°
2026-05-04 13:32 48.92777 -53.87860 39393 ft 472 kts 240°
2026-05-04 13:33 48.89927 -53.96852 39400 ft 472 kts 239°
2026-05-04 13:33 48.87065 -54.05848 39393 ft 474 kts 239°
2026-05-04 13:34 48.84196 -54.14838 39363 ft 474 kts 239°
2026-05-04 13:34 48.81311 -54.23847 39557 ft 474 kts 239°
2026-05-04 13:35 48.79872 -54.28329 39716 ft 473 kts 239°
2026-05-04 13:35 48.76987 -54.37287 39905 ft 472 kts 239°
2026-05-04 13:36 48.74100 -54.46218 40122 ft 472 kts 239°
2026-05-04 13:36 48.72657 -54.50674 40261 ft 471 kts 239°
2026-05-04 13:36 48.71211 -54.55126 40303 ft 472 kts 239°
2026-05-04 13:37 48.68299 -54.64069 40311 ft 475 kts 239°
2026-05-04 13:37 48.65375 -54.73020 40299 ft 475 kts 239°
2026-05-04 13:38 48.62444 -54.81964 40299 ft 474 kts 239°
2026-05-04 13:38 48.59531 -54.90823 40281 ft 474 kts 239°
2026-05-04 13:39 48.56594 -54.99721 40255 ft 474 kts 239°
2026-05-04 13:39 48.53643 -55.08625 40253 ft 474 kts 239°
2026-05-04 13:40 48.51185 -55.16023 40241 ft 475 kts 239°
2026-05-04 13:40 48.48222 -55.24911 40243 ft 474 kts 239°
2026-05-04 13:41 48.45252 -55.33790 40226 ft 474 kts 239°
2026-05-04 13:41 48.42280 -55.42643 40217 ft 474 kts 239°
2026-05-04 13:42 48.37807 -55.55912 40209 ft 474 kts 239°
2026-05-04 13:42 48.34817 -55.64739 40192 ft 474 kts 239°
2026-05-04 13:43 48.31821 -55.73559 40195 ft 474 kts 239°
2026-05-04 13:43 48.28852 -55.82410 40194 ft 474 kts 242°
2026-05-04 13:44 48.26058 -55.91378 40162 ft 473 kts 251°
2026-05-04 13:44 48.23524 -56.00426 40163 ft 466 kts 251°
2026-05-04 13:45 48.20830 -56.09095 40155 ft 457 kts 237°
2026-05-04 13:45 48.17506 -56.17220 40154 ft 459 kts 233°
2026-05-04 13:46 48.14126 -56.25415 40142 ft 466 kts 237°
2026-05-04 13:46 48.10980 -56.33951 40141 ft 471 kts 238°
2026-05-04 13:47 48.07934 -56.42682 40129 ft 476 kts 239°
2026-05-04 13:47 48.04889 -56.51464 40126 ft 476 kts 239°
2026-05-04 13:48 48.01823 -56.60231 40125 ft 476 kts 239°
2026-05-04 13:48 47.98745 -56.68971 40132 ft 475 kts 239°
2026-05-04 13:49 47.95659 -56.77692 40136 ft 475 kts 239°
2026-05-04 13:49 47.92571 -56.86391 40138 ft 474 kts 239°
2026-05-04 13:50 47.89470 -56.95100 40147 ft 476 kts 239°
2026-05-04 13:50 47.86352 -57.03828 40144 ft 478 kts 239°
2026-05-04 13:51 47.83225 -57.12551 40155 ft 478 kts 239°
2026-05-04 13:51 47.80089 -57.21274 40149 ft 477 kts 239°
2026-05-04 13:52 47.75378 -57.34319 40129 ft 477 kts 239°
2026-05-04 13:53 47.72230 -57.43001 40127 ft 477 kts 239°
2026-05-04 13:53 47.69077 -57.51669 40131 ft 477 kts 239°
2026-05-04 13:54 47.64332 -57.64662 40119 ft 477 kts 239°
2026-05-04 13:55 47.59569 -57.77636 40114 ft 477 kts 239°
2026-05-04 13:55 47.54795 -57.90578 40104 ft 478 kts 239°
2026-05-04 13:56 47.51595 -57.99218 40103 ft 479 kts 239°
2026-05-04 13:57 47.46805 -58.12099 40095 ft 479 kts 239°
2026-05-04 13:58 47.40373 -58.29301 40104 ft 478 kts 239°
2026-05-04 13:58 47.35540 -58.42150 40116 ft 477 kts 239°
2026-05-04 13:59 47.32311 -58.50702 40118 ft 477 kts 239°
2026-05-04 14:00 47.27486 -58.63434 40133 ft 469 kts 239°
2026-05-04 14:00 47.22713 -58.75965 40165 ft 468 kts 239°
2026-05-04 14:01 47.19512 -58.84332 40181 ft 472 kts 239°
2026-05-04 14:02 47.14678 -58.96927 40191 ft 469 kts 239°
2026-05-04 14:02 47.11471 -59.05251 40192 ft 468 kts 239°
2026-05-04 14:03 47.08257 -59.13565 40214 ft 468 kts 239°
2026-05-04 14:03 47.05056 -59.21822 40214 ft 468 kts 239°
2026-05-04 14:04 47.00218 -59.34251 40238 ft 468 kts 239°
2026-05-04 14:04 46.96981 -59.42536 40238 ft 469 kts 238°
2026-05-04 14:05 46.92123 -59.54923 40249 ft 467 kts 239°
2026-05-04 14:06 46.88876 -59.63171 40253 ft 468 kts 239°
2026-05-04 14:06 46.85621 -59.71415 40253 ft 468 kts 239°
2026-05-04 14:07 46.82360 -59.79647 40262 ft 467 kts 239°
2026-05-04 14:07 46.79097 -59.87861 40269 ft 468 kts 238°
2026-05-04 14:08 46.75822 -59.96079 40279 ft 469 kts 239°
2026-05-04 14:08 46.72534 -60.04308 40278 ft 470 kts 239°
2026-05-04 14:09 46.67601 -60.16604 40275 ft 471 kts 239°
2026-05-04 14:10 46.62634 -60.28930 40278 ft 470 kts 239°
2026-05-04 14:10 46.59323 -60.37116 40281 ft 469 kts 238°
2026-05-04 14:11 46.56013 -60.45274 40277 ft 468 kts 238°
2026-05-04 14:11 46.51051 -60.57460 40299 ft 466 kts 238°
2026-05-04 14:12 46.47748 -60.65541 40321 ft 465 kts 238°
2026-05-04 14:13 46.42841 -60.77503 40340 ft 460 kts 238°
2026-05-04 14:13 46.39560 -60.85472 40358 ft 460 kts 238°
2026-05-04 14:14 46.36248 -60.93495 40385 ft 461 kts 238°
2026-05-04 14:14 46.31329 -61.05366 40404 ft 460 kts 238°
2026-05-04 14:15 46.24728 -61.21216 40432 ft 461 kts 238°
2026-05-04 14:16 46.19763 -61.33078 40448 ft 460 kts 238°
2026-05-04 14:17 46.14769 -61.44958 40467 ft 465 kts 238°
2026-05-04 14:18 46.09725 -61.56908 40500 ft 465 kts 238°
2026-05-04 14:19 46.03004 -61.72749 40513 ft 465 kts 238°
2026-05-04 14:19 45.99622 -61.80687 40526 ft 465 kts 238°
2026-05-04 14:20 45.96237 -61.88609 40540 ft 465 kts 238°
2026-05-04 14:20 45.92846 -61.96523 40548 ft 464 kts 238°
2026-05-04 14:21 45.87763 -62.08342 40547 ft 463 kts 238°
2026-05-04 14:21 45.84370 -62.16206 40547 ft 464 kts 238°
2026-05-04 14:22 45.80972 -62.24059 40550 ft 464 kts 238°
2026-05-04 14:22 45.77557 -62.31928 40558 ft 465 kts 238°
2026-05-04 14:23 45.72417 -62.43730 40568 ft 466 kts 238°
2026-05-04 14:24 45.68981 -62.51593 40573 ft 466 kts 238°
2026-05-04 14:24 45.65541 -62.59442 40579 ft 465 kts 238°
2026-05-04 14:25 45.62103 -62.67266 40581 ft 464 kts 238°
2026-05-04 14:25 45.56947 -62.78959 40581 ft 464 kts 238°
2026-05-04 14:26 45.53502 -62.86743 40594 ft 464 kts 238°
2026-05-04 14:26 45.50076 -62.94464 40603 ft 464 kts 238°
2026-05-04 14:27 45.46623 -63.02225 40609 ft 464 kts 238°
2026-05-04 14:27 45.43161 -63.09985 40616 ft 464 kts 238°
2026-05-04 14:28 45.39693 -63.17737 40621 ft 464 kts 238°
2026-05-04 14:28 45.36223 -63.25472 40634 ft 463 kts 238°
2026-05-04 14:29 45.29296 -63.40850 40645 ft 462 kts 238°
2026-05-04 14:30 45.25824 -63.48526 40654 ft 462 kts 238°
2026-05-04 14:31 45.20606 -63.60024 40670 ft 462 kts 238°
2026-05-04 14:32 45.13646 -63.75289 40681 ft 463 kts 238°
2026-05-04 14:32 45.10717 -63.81688 40691 ft 462 kts 238°
2026-05-04 14:33 45.07217 -63.89314 40691 ft 462 kts 238°
2026-05-04 14:33 45.03710 -63.96939 40703 ft 462 kts 238°
2026-05-04 14:34 45.00199 -64.04550 40710 ft 462 kts 238°
2026-05-04 14:34 44.96683 -64.12151 40711 ft 462 kts 238°
2026-05-04 14:35 44.93185 -64.19694 40727 ft 462 kts 237°
2026-05-04 14:35 44.89659 -64.27279 40738 ft 462 kts 237°
2026-05-04 14:36 44.86125 -64.34859 40737 ft 462 kts 237°
2026-05-04 14:36 44.82586 -64.42429 40753 ft 463 kts 237°
2026-05-04 14:37 44.79044 -64.49986 40761 ft 462 kts 237°
2026-05-04 14:37 44.75496 -64.57538 40771 ft 462 kts 237°
2026-05-04 14:38 44.71942 -64.65081 40777 ft 463 kts 237°
2026-05-04 14:38 44.68382 -64.72617 40781 ft 462 kts 237°
2026-05-04 14:39 44.64823 -64.80130 40786 ft 462 kts 237°
2026-05-04 14:39 44.61266 -64.87622 40796 ft 461 kts 237°
2026-05-04 14:40 44.55916 -64.98852 40794 ft 461 kts 237°
2026-05-04 14:40 44.52350 -65.06313 40802 ft 460 kts 237°
2026-05-04 14:41 44.48781 -65.13762 40811 ft 460 kts 237°
2026-05-04 14:42 44.41629 -65.28630 40812 ft 460 kts 237°
2026-05-04 14:42 44.38078 -65.35984 40825 ft 459 kts 237°
2026-05-04 14:43 44.34501 -65.43371 40826 ft 459 kts 237°
2026-05-04 14:43 44.30921 -65.50747 40831 ft 459 kts 237°
2026-05-04 14:44 44.27337 -65.58113 40838 ft 459 kts 237°
2026-05-04 14:44 44.23753 -65.65461 40840 ft 458 kts 237°
2026-05-04 14:45 44.20167 -65.72793 40836 ft 457 kts 237°
2026-05-04 14:45 44.16585 -65.80100 40853 ft 457 kts 237°
2026-05-04 14:46 44.12991 -65.87411 40852 ft 457 kts 237°
2026-05-04 14:46 44.09394 -65.94710 40859 ft 457 kts 237°
2026-05-04 14:47 44.05790 -66.02007 40864 ft 457 kts 237°
2026-05-04 14:47 44.02185 -66.09285 40866 ft 457 kts 237°
2026-05-04 14:48 43.98571 -66.16563 40865 ft 457 kts 237°
2026-05-04 14:48 43.94958 -66.23824 40872 ft 457 kts 237°
2026-05-04 14:49 43.91344 -66.31066 40865 ft 457 kts 237°
2026-05-04 14:49 43.87721 -66.38309 40868 ft 457 kts 236°
2026-05-04 14:50 43.84098 -66.45534 40867 ft 456 kts 237°
2026-05-04 14:50 43.80477 -66.52738 40869 ft 455 kts 236°
2026-05-04 14:51 43.76884 -66.59869 40873 ft 455 kts 236°
2026-05-04 14:51 43.73610 -66.66350 40873 ft 455 kts 236°
2026-05-04 14:52 43.70005 -66.73472 40884 ft 455 kts 236°
2026-05-04 14:52 43.66376 -66.80623 40884 ft 455 kts 236°
2026-05-04 14:53 43.62740 -66.87771 40880 ft 455 kts 236°
2026-05-04 14:53 43.59097 -66.94913 40883 ft 455 kts 236°
2026-05-04 14:54 43.55918 -67.02395 40891 ft 452 kts 248°
2026-05-04 14:54 43.53602 -67.10434 40888 ft 451 kts 249°
2026-05-04 14:55 43.51334 -67.18498 40888 ft 452 kts 249°
2026-05-04 14:55 43.49065 -67.26565 40884 ft 452 kts 249°
2026-05-04 14:56 43.46793 -67.34623 40884 ft 452 kts 249°
2026-05-04 14:56 43.44517 -67.42673 40884 ft 451 kts 249°
2026-05-04 14:57 43.42237 -67.50712 40889 ft 451 kts 249°
2026-05-04 14:57 43.39953 -67.58738 40889 ft 451 kts 249°
2026-05-04 14:58 43.37663 -67.66757 40891 ft 451 kts 249°
2026-05-04 14:58 43.35368 -67.74772 40885 ft 451 kts 249°
2026-05-04 14:59 43.33070 -67.82769 40908 ft 449 kts 249°
2026-05-04 15:00 43.29618 -67.94737 40893 ft 450 kts 249°
2026-05-04 15:00 43.27325 -68.02657 40897 ft 449 kts 249°
2026-05-04 15:01 43.23852 -68.14602 40886 ft 449 kts 249°
2026-05-04 15:01 43.21532 -68.22550 40894 ft 448 kts 249°
2026-05-04 15:02 43.19212 -68.30476 40892 ft 448 kts 248°
2026-05-04 15:02 43.16885 -68.38399 40895 ft 448 kts 248°
2026-05-04 15:03 43.14551 -68.46320 40892 ft 449 kts 248°
2026-05-04 15:03 43.12210 -68.54242 40883 ft 449 kts 248°
2026-05-04 15:04 43.09868 -68.62143 40894 ft 448 kts 248°
2026-05-04 15:04 43.07522 -68.70032 40893 ft 448 kts 248°
2026-05-04 15:05 43.06354 -68.73951 40701 ft 441 kts 248°
2026-05-04 15:05 43.05205 -68.77798 40422 ft 433 kts 248°
2026-05-04 15:05 43.04073 -68.81584 39988 ft 428 kts 248°
2026-05-04 15:05 43.02948 -68.85344 39504 ft 426 kts 248°
2026-05-04 15:06 43.01827 -68.89084 39151 ft 426 kts 248°
2026-05-04 15:06 43.00699 -68.92839 38618 ft 428 kts 248°
2026-05-04 15:06 42.99562 -68.96621 37713 ft 432 kts 248°
2026-05-04 15:07 42.97282 -69.04188 36273 ft 432 kts 248°
2026-05-04 15:07 42.96132 -69.07996 35413 ft 436 kts 248°
2026-05-04 15:07 42.94971 -69.11833 34644 ft 437 kts 249°
2026-05-04 15:07 42.93810 -69.15668 33908 ft 438 kts 249°
2026-05-04 15:08 42.92648 -69.19496 33131 ft 436 kts 249°
2026-05-04 15:08 42.91487 -69.23317 32324 ft 435 kts 249°
2026-05-04 15:08 42.90330 -69.27118 31630 ft 432 kts 249°
2026-05-04 15:08 42.89184 -69.30878 31068 ft 427 kts 249°
2026-05-04 15:09 42.88050 -69.34595 30506 ft 422 kts 249°
2026-05-04 15:09 42.86927 -69.38271 29955 ft 418 kts 249°
2026-05-04 15:09 42.85827 -69.41864 29315 ft 414 kts 249°
2026-05-04 15:10 42.83632 -69.49022 28075 ft 405 kts 249°
2026-05-04 15:10 42.82549 -69.52547 27463 ft 401 kts 249°
2026-05-04 15:10 42.80417 -69.59470 26224 ft 387 kts 249°
2026-05-04 15:11 42.79369 -69.62865 25052 ft 382 kts 249°
2026-05-04 15:11 42.78357 -69.66142 23912 ft 379 kts 249°
2026-05-04 15:11 42.77342 -69.69426 22684 ft 374 kts 249°
2026-05-04 15:11 42.76341 -69.72659 21762 ft 363 kts 249°
2026-05-04 15:12 42.75383 -69.75741 21231 ft 344 kts 250°
2026-05-04 15:12 42.74468 -69.78684 20731 ft 336 kts 250°
2026-05-04 15:12 42.73564 -69.81599 20194 ft 334 kts 250°
2026-05-04 15:12 42.72662 -69.84506 19699 ft 333 kts 250°
2026-05-04 15:13 42.71761 -69.87404 19180 ft 332 kts 250°
2026-05-04 15:13 42.70861 -69.90293 18652 ft 331 kts 250°
2026-05-04 15:13 42.69964 -69.93167 18117 ft 330 kts 250°
2026-05-04 15:13 42.69071 -69.96027 17563 ft 327 kts 250°
2026-05-04 15:14 42.68185 -69.98858 17045 ft 324 kts 250°
2026-05-04 15:14 42.67307 -70.01662 16536 ft 321 kts 250°
2026-05-04 15:14 42.66438 -70.04436 16043 ft 318 kts 250°
2026-05-04 15:14 42.65572 -70.07197 15513 ft 316 kts 249°
2026-05-04 15:15 42.64714 -70.09921 15065 ft 312 kts 249°
2026-05-04 15:15 42.63821 -70.12561 14682 ft 309 kts 247°
2026-05-04 15:15 42.62905 -70.15186 14289 ft 305 kts 247°
2026-05-04 15:16 42.61167 -70.20177 14005 ft 279 kts 248°
2026-05-04 15:16 42.60415 -70.22542 13870 ft 267 kts 253°
2026-05-04 15:16 42.59924 -70.27395 13273 ft 258 kts 267°
2026-05-04 15:17 42.59824 -70.29822 12913 ft 256 kts 267°
2026-05-04 15:17 42.59619 -70.34627 12188 ft 254 kts 266°
2026-05-04 15:17 42.59512 -70.37008 11840 ft 252 kts 266°
2026-05-04 15:18 42.59403 -70.39374 11500 ft 251 kts 266°
2026-05-04 15:18 42.59294 -70.41731 11149 ft 250 kts 266°
2026-05-04 15:18 42.59185 -70.44076 10808 ft 249 kts 266°
2026-05-04 15:19 42.58965 -70.48742 10095 ft 247 kts 265°
2026-05-04 15:19 42.58855 -70.51065 9759 ft 246 kts 265°
2026-05-04 15:19 42.58622 -70.55686 9033 ft 246 kts 263°
2026-05-04 15:20 42.58286 -70.57951 8695 ft 244 kts 255°
2026-05-04 15:20 42.57817 -70.60157 8371 ft 243 kts 254°
2026-05-04 15:20 42.57335 -70.62342 8039 ft 241 kts 253°
2026-05-04 15:20 42.56857 -70.64506 7704 ft 239 kts 254°
2026-05-04 15:21 42.56393 -70.66660 7370 ft 237 kts 255°
2026-05-04 15:21 42.56186 -70.68869 7051 ft 238 kts 270°
2026-05-04 15:21 42.57492 -70.73004 6552 ft 248 kts 301°
2026-05-04 15:22 42.58563 -70.74841 6335 ft 247 kts 301°
2026-05-04 15:22 42.59325 -70.76017 6201 ft 243 kts 307°
2026-05-04 15:22 42.62370 -70.77489 5950 ft 235 kts 345°
2026-05-04 15:23 42.63857 -70.78110 5954 ft 214 kts 316°
2026-05-04 15:23 42.64865 -70.79466 5957 ft 200 kts 298°
2026-05-04 15:23 42.65667 -70.81000 5955 ft 198 kts 295°
2026-05-04 15:23 42.66063 -70.82704 5956 ft 187 kts 265°
2026-05-04 15:24 42.64975 -70.85715 5022 ft 184 kts 236°
2026-05-04 15:24 42.63088 -70.88042 4059 ft 197 kts 201°
2026-05-04 15:25 42.61741 -70.88461 3963 ft 199 kts 201°
2026-05-04 15:25 42.60408 -70.88943 3939 ft 197 kts 204°
2026-05-04 15:25 42.59105 -70.89523 3953 ft 197 kts 206°
2026-05-04 15:26 42.56532 -70.90779 3956 ft 196 kts 206°
2026-05-04 15:26 42.55248 -70.91410 3822 ft 196 kts 206°
2026-05-04 15:26 42.52699 -70.92650 3262 ft 193 kts 206°
2026-05-04 15:27 42.51480 -70.93241 2989 ft 179 kts 207°
2026-05-04 15:27 42.49317 -70.94292 2520 ft 152 kts 206°
2026-05-04 15:28 42.47495 -70.95177 2147 ft 128 kts 207°
2026-05-04 15:28 42.46681 -70.95570 1987 ft 122 kts 207°
2026-05-04 15:28 42.45085 -70.96350 1670 ft 123 kts 205°
2026-05-04 15:29 42.44282 -70.96738 1479 ft 122 kts 206°
2026-05-04 15:30 42.41088 -70.98289 820 ft 121 kts 204°
2026-05-04 15:30 42.38684 -70.99438 298 ft 122 kts 203°
2026-05-04 15:31 42.37066 -71.00233 35 ft 126 kts 205°
2026-05-04 15:31 42.36350 -71.00584 32 ft 94 kts 200°
2026-05-04 15:32 42.35316 -71.01082 32 ft 18 kts 200°
2026-05-04 15:32 42.35224 -71.01251 32 ft 13 kts 303°
2026-05-04 15:33 42.35344 -71.01481 32 ft 17 kts 305°
2026-05-04 15:34 42.35660 -71.01660 32 ft 22 kts 20°
2026-05-04 15:34 42.35812 -71.01588 32 ft 17 kts 19°
2026-05-04 15:34 42.36055 -71.01471 32 ft 16 kts 19°
2026-05-04 15:35 42.36246 -71.01378 32 ft 18 kts 20°
2026-05-04 15:35 42.36373 -71.01315 32 ft 21 kts 19°
2026-05-04 15:35 42.36506 -71.01252 32 ft 9 kts 20°
2026-05-04 15:36 42.36666 -71.01174 32 ft 16 kts 20°
2026-05-04 15:36 42.36781 -71.01145 32 ft 18 kts 343°
2026-05-04 15:36 42.36875 -71.01262 32 ft 19 kts 315°
2026-05-04 15:37 42.36976 -71.01396 32 ft 21 kts 316°
2026-05-04 15:37 42.37079 -71.01531 32 ft 18 kts 316°
2026-05-04 15:37 42.37161 -71.01643 32 ft 6 kts 315°
2026-05-04 15:37 42.37197 -71.01692 32 ft 9 kts 316°
2026-05-04 15:38 42.37252 -71.01765 32 ft 13 kts 314°
2026-05-04 15:38 42.37300 -71.01851 32 ft 10 kts 280°
2026-05-04 15:38 42.37267 -71.01909 32 ft 9 kts 221°
2026-05-04 15:38 42.37235 -71.01982 32 ft 9 kts 260°
2026-05-04 15:39 42.37228 -71.02070 32 ft 7 kts 230°
2026-05-04 15:39 42.37179 -71.02088 32 ft 4 kts 186°
2026-05-04 15:39 42.37144 -71.02087 32 ft 0 kts 177°
2026-05-04 15:40 42.37143 -71.02087 32 ft 0 kts 177°